Temperature
22 22 21 21 21 22 23 24 25 25 25 25 25 25 24 22 21 19 18 18 18 18 18 18 18 18 18 18 18 18 18 17 17 17 17 18 18 18 18 18 18 18 18 18 18 18 18 18 18
22 21 22 22 22 22 23 24 24 25 25 25 25 24 23 22 20 18 18 18 18 17 18 18 18 18 18 18 18 17 17 17 17 17 17 17 17 17 17 17 17 17 17 17 17 18 18 18 18
22 22 22 23 23 23 23 24 24 25 25 25 24 23 22 21 20 18 18 18 18 17 17 18 18 18 18 18 17 17 17 17 17 17 17 17 17 17 17 17 17 17 17 17 17 17 17 17 17
22 22 24 23 23 24 24 25 25 25 25 25 24 23 21 20 19 19 18 18 18 17 18 18 18 18 18 17 17 17 17 17 17 17 17 17 17 17 17 17 17 17 17 17 17 17 17 17 17
22 23 23 23 24 25 25 25 25 25 25 24 24 22 20 19 19 19 18 18 18 17 17 18 18 18 17 17 17 17 17 17 17 17 17 17 17 17 17 17 17 17 17 17 17 17 17 17 17
23 24 23 23 24 25 25 25 25 25 24 24 23 22 19 19 19 19 18 18 18 17 17 17 17 17 17 17 17 17 17 17 17 17 17 17 17 17 17 17 17 17 17 17 17 17 17 17 17
23 23 23 24 23 24 25 25 25 24 24 24 24 22 19 19 19 19 18 18 18 18 17 17 17 17 17 17 17 17 17 17 17 17 17 17 17 17 17 17 17 17 17 17 17 17 17 17 17
23 23 24 24 23 24 25 25 25 24 24 23 23 22 20 19 19 19 18 18 18 18 17 17 17 17 17 17 17 17 17 17 17 17 17 16 16 16 16 16 17 17 17 17 17 17 17 17 17
24 23 23 24 24 24 25 25 24 24 23 23 22 21 20 19 19 18 18 18 18 18 18 17 17 17 17 17 17 17 17 16 16 16 16 16 16 16 16 16 16 16 16 16 16 16 17 17 16
25 23 24 25 25 25 25 25 25 24 23 23 21 20 20 19 19 19 19 18 18 18 18 17 17 17 17 17 17 16 16 16 16 16 16 16 16 16 16 16 16 16 16 16 16 16 16 16 16
25 24 25 25 25 25 25 25 25 24 23 23 22 20 20 19 19 19 19 19 18 18 18 18 17 17 17 17 16 16 16 16 16 16 16 16 16 16 16 16 16 16 16 16 16 16 16 16 16
25 25 25 25 25 25 25 25 24 23 23 23 22 21 20 20 19 19 19 19 18 18 18 18 18 17 17 17 16 16 16 16 16 16 16 16 16 16 16 16 16 16 16 16 16 16 16 16 16
25 25 25 25 24 25 25 24 24 23 23 22 22 21 20 20 20 19 19 19 18 18 18 18 17 17 17 17 16 16 16 16 16 16 16 16 16 16 16 16 15 15 15 15 16 16 16 16 16
25 25 25 25 25 25 24 24 24 23 23 22 22 21 21 20 20 20 19 19 18 18 18 17 17 17 17 17 16 16 16 16 16 16 16 16 16 15 15 15 15 15 15 15 15 15 15 15 15
25 24 24 25 25 25 25 24 24 23 23 22 22 21 21 20 20 20 19 19 19 18 18 17 17 17 17 17 16 16 16 16 16 16 16 16 15 15 15 15 15 15 15 15 15 15 15 15 15
25 24 23 24 25 25 24 22 24 23 23 22 22 21 20 20 20 20 19 19 19 18 18 17 17 17 17 17 16 16 16 16 16 15 16 15 15 15 15 15 15 15 15 15 15 15 15 15 15
24 23 24 24 25 25 24 23 24 24 23 23 22 21 21 20 20 19 19 19 19 18 18 17 17 17 17 16 16 16 16 15 15 15 15 15 15 15 15 15 15 15 15 15 15 14 14 14 14
24 24 24 24 25 25 24 24 24 24 23 23 22 22 21 20 20 19 19 19 18 18 18 17 17 17 16 16 16 16 15 15 15 15 15 15 15 15 15 15 14 14 14 14 14 14 14 14 14
25 25 25 25 26 25 24 24 24 24 23 23 23 22 21 21 20 19 19 19 18 18 18 17 17 17 16 16 16 15 15 15 15 15 15 15 15 14 14 14 14 14 14 14 14 14 14 14 14
25 24 24 25 26 25 24 24 24 24 24 23 23 23 22 21 20 19 19 18 18 18 18 18 17 17 16 16 16 15 15 15 15 15 14 14 14 14 14 14 14 14 14 14 14 14 13 13 13
25 24 24 24 25 25 24 24 24 24 24 23 23 23 22 21 20 20 19 18 18 18 18 18 17 17 16 16 16 15 15 15 15 14 14 14 14 14 14 14 14 14 14 14 13 13 13 13 13
24 25 25 24 23 23 24 22 23 24 23 23 23 22 22 21 20 20 19 19 18 18 18 17 17 17 16 16 16 15 15 15 15 14 14 14 14 14 14 14 14 14 13 13 13 13 13 13 13
24 25 24 24 23 23 24 23 23 24 23 23 23 22 22 21 20 20 19 18 18 18 17 17 17 17 16 16 16 15 15 15 15 14 14 14 14 14 14 14 14 13 13 13 13 13 13 13 13
24 24 24 23 23 22 24 23 22 23 24 23 23 22 22 21 20 20 19 18 18 18 17 17 17 16 16 16 15 15 15 15 14 14 14 14 14 14 14 14 14 13 13 13 13 13 13 13 13
24 22 21 21 21 22 25 24 23 24 24 24 23 22 21 20 20 19 19 18 18 17 17 16 16 16 16 16 15 15 15 14 14 14 14 14 14 14 14 14 14 13 13 13 13 13 13 13 13
23 23 21 21 22 23 24 23 23 24 24 23 22 21 21 20 19 19 18 18 17 17 17 16 16 16 16 15 15 15 15 14 14 14 14 14 14 14 14 13 13 13 13 13 13 13 13 13 13
23 23 24 22 23 22 23 23 23 23 23 23 22 21 20 20 19 18 18 17 17 17 16 16 16 15 15 15 15 15 14 14 14 14 14 14 13 13 13 13 13 13 13 13 13 13 13 12 12
23 23 23 22 21 21 22 22 22 22 22 22 22 21 20 19 18 18 17 17 17 16 16 16 15 15 15 15 15 14 14 14 14 14 14 13 13 13 13 13 13 13 13 13 12 12 12 12 12
22 22 22 22 22 21 20 21 23 22 22 22 21 21 20 19 18 17 17 16 16 16 16 15 15 15 15 15 14 14 14 14 14 14 13 13 13 13 13 13 13 13 12 12 12 12 12 12 12
23 22 22 20 21 21 20 21 23 22 22 21 20 20 19 19 18 17 16 16 16 15 15 15 15 15 14 14 14 14 14 14 13 13 13 13 13 13 13 12 12 12 12 12 12 12 12 12 12
Wind_Speed
9 10 8 3 3 1 3 4 7 7 6 7 8 8 10 11 8 7 3 5 9 11 12 12 11 11 12 12 12 12 12 13 13 13 13 13 13 12 12 11 11 11 11 10 10 10 10 10 9
8 5 4 3 2 1 4 5 9 9 7 6 7 9 11 10 10 8 4 5 9 11 12 12 11 12 12 12 13 12 13 13 13 13 13 13 13 13 13 12 12 12 11 10 10 10 10 9 9
9 6 4 2 1 2 5 8 9 9 7 6 7 9 8 6 8 6 5 6 10 12 13 12 11 12 12 13 13 13 13 13 13 13 14 14 14 13 13 13 12 12 12 11 10 10 10 9 8
5 3 3 1 3 7 8 8 8 8 7 6 7 8 7 8 6 8 7 8 10 11 13 12 11 12 12 12 13 13 13 13 14 13 13 14 14 13 13 13 12 12 12 12 11 10 9 9 8
3 3 2 1 5 8 8 8 7 7 6 8 9 9 9 9 11 10 7 8 10 11 12 13 12 12 12 12 12 13 13 13 13 12 13 13 13 13 12 12 13 13 12 11 11 10 9 8 8
2 2 1 2 6 6 6 7 6 8 7 8 9 9 7 8 8 8 7 7 10 10 11 12 12 12 12 12 12 12 12 12 12 12 12 12 12 12 12 11 12 12 12 11 10 10 8 7 6
3 2 1 3 6 5 5 5 6 6 6 6 6 7 7 7 7 6 7 8 8 9 10 10 11 11 12 12 11 12 11 11 11 10 10 10 10 11 11 11 11 11 10 10 9 8 7 6 5
3 2 1 2 5 5 5 5 5 6 6 5 5 6 7 8 7 6 7 7 7 7 7 8 10 11 11 11 11 11 10 10 9 9 8 8 9 9 10 10 10 9 9 8 7 6 5 4 3
4 2 1 2 4 5 6 5 6 6 6 6 8 10 10 12 10 8 7 7 6 6 5 6 7 8 10 10 10 9 9 8 8 6 6 6 6 8 8 8 8 8 7 6 4 3 2 2 1
2 0 2 4 5 5 5 5 5 5 6 7 10 12 13 11 10 8 7 8 7 5 5 5 6 7 7 7 8 6 6 6 5 5 4 3 5 7 8 8 7 5 4 3 1 1 1 1 1
1 1 2 5 6 5 4 4 3 5 4 5 8 12 11 9 8 7 7 7 7 6 5 5 5 6 6 4 5 4 3 3 3 4 4 4 6 6 6 5 5 3 2 2 0 1 1 1 3
2 1 3 5 4 3 3 3 4 5 3 6 8 11 11 9 8 7 7 7 7 6 5 4 4 5 6 5 4 3 2 2 2 3 5 4 3 2 3 3 3 3 2 2 1 1 1 4 5
3 3 3 4 4 3 3 3 4 4 5 7 8 10 9 8 7 6 7 7 7 6 5 5 4 4 5 4 2 3 2 2 4 3 4 4 2 2 3 3 3 3 3 3 3 3 5 5 5
3 4 3 4 4 4 3 3 4 4 6 8 8 9 8 7 8 7 7 7 7 6 5 5 5 4 5 4 2 2 3 4 4 3 4 5 4 3 3 3 3 3 4 4 3 4 4 4 4
5 5 5 5 5 4 3 3 5 6 7 7 7 8 8 7 6 6 6 6 7 6 6 5 5 4 4 4 2 3 4 4 3 3 4 5 5 4 3 3 3 3 4 4 4 5 4 3 4
6 6 5 6 6 5 4 3 4 7 8 7 7 7 8 6 6 6 6 6 6 6 6 6 4 4 4 4 3 3 4 4 4 4 4 4 5 6 5 3 3 4 5 4 3 3 4 4 3
7 6 5 6 7 6 5 3 5 7 8 8 8 8 8 7 6 5 5 5 6 6 6 6 4 4 5 4 4 3 4 4 4 4 4 5 5 6 5 3 2 4 4 3 3 4 3 3 3
4 4 5 5 6 6 5 4 6 7 8 7 8 8 8 8 7 7 6 6 5 5 6 7 5 5 4 4 3 3 3 3 4 3 4 5 5 5 4 2 3 4 3 3 3 3 3 2 2
4 4 3 2 3 4 5 5 5 7 7 7 7 8 9 9 8 8 7 6 6 5 5 6 6 5 5 3 2 2 2 2 2 2 3 3 4 5 4 2 3 3 2 2 2 2 3 2 2
6 5 3 2 3 4 4 6 5 6 8 6 6 6 8 8 9 8 7 6 6 6 5 5 6 5 5 4 3 3 3 2 2 2 2 3 3 3 2 2 2 2 2 2 3 3 2 2 2
7 5 4 3 4 6 6 7 7 7 6 6 5 5 7 8 8 8 8 7 6 6 5 5 5 5 6 6 4 3 2 2 2 2 1 1 1 2 2 1 2 1 1 1 1 2 2 1 2
6 3 3 5 6 5 5 4 6 8 8 8 7 6 6 7 8 8 8 8 7 5 5 5 5 5 6 7 5 4 3 2 2 2 2 1 0 1 1 1 1 1 1 1 0 2 1 0 1
4 4 5 7 8 8 8 6 3 7 8 8 8 7 6 6 7 8 7 7 7 6 5 4 5 4 5 6 6 5 3 3 2 3 3 2 2 1 1 0 0 1 1 1 0 1 0 0 0
5 6 7 9 8 9 8 6 3 3 5 7 8 7 6 6 6 6 7 6 6 6 6 5 5 4 4 6 6 5 4 3 3 3 3 2 1 1 2 1 1 1 1 1 1 1 0 1 1
7 5 4 5 6 6 4 4 2 4 4 6 7 6 6 5 6 6 6 7 6 6 6 6 5 5 4 5 5 5 4 4 4 3 3 3 2 2 2 2 2 1 1 1 1 1 1 1 1
7 7 5 4 4 2 3 3 4 6 6 6 6 6 6 6 5 5 5 7 6 6 6 6 5 5 5 5 5 5 4 3 2 3 2 2 2 3 3 3 2 2 2 1 1 1 1 1 1
5 6 6 7 9 7 3 2 4 7 7 7 7 7 6 6 5 5 4 4 6 6 6 6 5 5 5 4 4 5 5 4 3 3 2 2 2 2 3 3 3 2 2 2 2 1 2 1 1
7 6 5 4 4 6 4 4 4 9 7 6 6 6 5 5 5 5 4 3 4 4 5 5 5 5 4 4 4 4 4 4 3 3 3 3 3 2 2 2 3 3 2 2 2 1 1 1 1
7 7 6 5 5 4 4 1 3 8 7 6 5 5 6 5 5 4 4 3 3 3 4 5 4 4 4 4 3 4 4 4 4 3 3 3 2 2 3 3 3 3 3 3 2 2 2 2 2
6 7 7 5 5 4 4 1 5 6 6 5 4 4 4 5 5 4 4 4 4 3 2 3 4 4 3 3 3 2 3 3 3 2 2 1 2 2 2 3 2 3 3 3 3 3 3 3 2
Wind_Direction
262 240 234 242 252 219 83 75 84 75 64 56 53 60 66 54 52 90 128 92 97 101 100 89 81 78 75 74 74 75 76 77 76 74 73 71 70 71 73 76 77 76 75 74 76 75 74 72 73
272 255 251 241 249 105 81 82 80 78 80 77 68 67 72 67 74 98 109 94 99 97 96 90 86 82 78 77 76 76 78 78 78 75 74 72 72 72 72 74 76 74 73 72 75 75 73 70 68
260 257 257 252 329 83 89 81 90 90 80 77 75 61 58 70 82 100 114 111 99 97 96 94 90 86 82 79 78 78 80 80 78 76 75 73 73 72 73 74 74 72 70 70 72 72 72 69 65
255 246 245 249 78 79 93 99 106 104 91 79 85 79 75 58 81 106 119 107 100 100 101 103 97 93 88 83 80 80 82 82 80 78 77 77 75 74 73 73 74 73 71 70 71 73 73 71 65
242 256 241 141 85 78 83 93 100 99 92 81 84 89 85 76 92 108 111 104 103 103 107 110 106 100 94 88 85 85 86 86 84 82 80 81 81 78 75 73 71 70 68 70 71 73 73 71 64
264 253 253 132 100 85 79 82 90 93 92 94 99 96 91 102 102 112 111 102 103 106 108 115 114 107 101 96 91 89 91 90 88 87 84 84 84 83 80 77 75 73 70 68 67 70 72 70 62
278 282 242 123 110 106 100 94 93 94 87 76 87 99 115 115 109 113 109 102 104 109 117 122 121 114 110 103 99 97 95 95 93 91 90 91 90 90 87 82 76 74 71 69 69 68 71 69 59
279 296 274 127 119 110 107 100 92 91 84 70 68 100 126 131 130 119 107 103 105 110 116 123 127 125 120 112 106 105 103 100 99 97 96 98 101 101 96 89 81 76 71 69 69 71 73 72 59
265 276 349 99 110 110 121 117 104 93 95 83 74 86 117 131 134 127 121 115 104 101 106 116 122 122 122 122 118 121 116 115 115 113 110 117 115 107 102 95 92 83 77 71 74 84 86 82 60
214 327 41 63 98 115 123 127 131 126 114 105 98 100 118 132 139 139 140 134 126 123 119 108 111 109 110 110 124 129 123 131 134 136 138 131 95 100 103 106 108 103 92 79 59 249 246 214 141
175 102 71 71 85 97 112 125 117 123 111 117 127 129 134 139 143 139 132 128 128 122 107 113 116 111 109 106 109 100 102 114 106 97 100 92 92 100 110 122 127 133 120 89 46 247 249 139 115
149 81 81 93 89 101 109 100 92 91 95 96 116 138 143 149 147 143 135 122 114 109 107 96 98 111 110 104 110 103 87 83 75 79 86 77 72 77 95 100 115 115 88 49 37 21 62 72 86
148 132 114 110 124 134 113 103 107 108 112 117 127 136 145 150 147 142 130 127 122 117 113 106 99 102 102 91 87 100 89 81 76 46 75 86 78 66 80 77 79 69 65 49 22 39 45 43 50
142 144 152 157 152 145 143 159 154 139 137 137 136 141 149 150 148 144 141 137 131 128 129 114 109 95 94 104 111 94 87 68 72 53 44 67 71 66 75 73 65 62 52 44 44 52 54 47 47
176 181 178 175 183 171 178 199 171 162 153 147 148 147 145 148 151 146 144 140 137 140 136 127 126 114 109 107 92 84 83 85 69 53 43 56 65 66 70 74 68 69 65 50 41 44 47 54 52
204 207 193 179 194 195 208 219 158 161 162 161 161 151 149 155 156 144 140 140 140 140 136 129 129 120 110 104 91 86 80 77 73 57 35 55 65 64 67 63 52 52 61 57 41 43 43 41 41
213 215 191 178 194 200 208 203 168 169 174 172 168 162 158 161 159 146 144 138 138 141 138 130 131 130 117 109 93 78 74 79 76 64 41 42 56 67 71 69 60 61 60 50 42 46 43 39 32
224 220 202 187 184 200 207 210 180 179 182 181 173 171 166 165 162 155 150 144 141 140 140 141 141 131 113 110 109 88 78 85 83 76 58 44 49 62 66 71 65 69 63 50 57 63 45 40 18
285 268 250 186 190 213 218 223 200 179 184 189 181 177 172 168 161 151 149 147 146 144 147 149 148 146 136 131 123 114 109 96 90 95 88 64 57 68 64 57 55 67 69 55 62 84 61 26 16
254 253 249 219 211 242 242 238 208 190 188 189 190 181 171 163 157 152 154 155 159 160 161 149 148 153 145 142 141 144 141 139 130 106 99 97 80 79 77 77 72 76 67 50 47 56 57 359 3
245 257 272 271 265 249 248 242 201 190 170 171 193 185 170 166 161 160 165 160 157 160 163 160 158 156 147 141 136 139 122 113 108 116 114 103 109 108 110 94 106 126 121 114 96 89 73 4 334
259 262 273 269 269 261 248 266 206 176 177 182 186 185 170 164 163 163 162 159 161 160 161 161 154 152 147 147 148 149 144 149 152 146 143 157 136 94 107 97 119 142 114 112 179 104 102 69 319
274 283 269 261 260 266 252 258 211 174 183 178 171 169 168 164 158 158 158 156 160 157 156 156 148 149 147 148 153 158 151 157 155 153 152 175 182 147 161 214 129 137 137 158 114 63 15 226 246
272 265 260 255 256 253 235 238 209 182 169 163 160 160 160 152 146 148 148 146 150 147 149 149 148 147 151 153 155 159 157 159 153 157 161 176 157 174 192 192 169 170 165 175 174 185 244 315 331
230 243 248 224 222 236 201 225 150 108 107 124 136 139 135 126 136 148 152 149 150 149 151 156 153 152 158 158 160 164 167 174 178 173 174 178 173 186 212 199 188 182 168 170 157 193 201 230 229
238 238 258 273 262 265 220 201 120 111 105 105 113 120 123 122 119 127 149 156 156 157 156 156 159 159 164 171 169 168 173 180 184 177 166 188 190 190 198 199 200 184 177 189 160 187 221 229 204
260 249 263 278 285 280 234 151 148 121 121 121 122 123 126 127 126 125 124 148 154 159 160 161 165 164 168 177 181 174 179 182 189 190 179 193 216 205 192 197 193 193 186 193 186 194 220 231 223
258 281 275 254 267 267 243 222 186 153 144 132 128 129 128 133 130 123 121 132 140 145 153 159 167 172 177 177 191 184 185 185 188 194 196 196 214 213 183 195 196 189 187 193 202 198 228 219 223
231 243 255 271 268 276 278 295 91 139 139 135 127 120 124 120 121 119 118 115 106 128 152 159 165 174 178 187 198 190 183 191 196 199 200 198 211 208 196 206 206 197 196 200 201 203 201 223 228
250 252 255 257 268 268 274 290 102 111 102 97 95 96 104 114 119 123 119 120 122 125 143 164 166 170 171 186 193 189 183 193 197 194 190 196 231 227 209 208 208 210 209 205 204 207 206 217 226
Height
1488 1488 1489 1491 1492 1495 1495 1489 1484 1487 1488 1490 1491 1492 1496 1501 1507 1517 1517 1516 1515 1514 1514 1514 1514 1514 1514 1514 1515 1515 1515 1515 1515 1515 1516 1516 1516 1516 1516 1517 1518 1518 1519 1520 1520 1520 1521 1521 1522
1488 1490 1492 1491 1494 1501 1498 1488 1489 1490 1491 1492 1493 1495 1498 1505 1510 1513 1515 1516 1516 1515 1515 1515 1515 1515 1515 1516 1516 1516 1516 1517 1517 1517 1517 1517 1517 1517 1517 1518 1519 1520 1520 1521 1521 1521 1522 1522 1523
1489 1491 1492 1490 1492 1497 1497 1489 1490 1491 1493 1493 1496 1499 1503 1509 1512 1514 1516 1517 1517 1516 1516 1516 1516 1516 1516 1517 1517 1518 1518 1518 1518 1518 1518 1519 1519 1519 1519 1520 1520 1521 1522 1522 1522 1522 1523 1523 1524
1491 1492 1491 1491 1494 1489 1489 1489 1490 1493 1494 1495 1497 1503 1508 1512 1513 1514 1516 1517 1517 1517 1517 1517 1517 1517 1518 1518 1518 1519 1519 1519 1520 1520 1520 1520 1520 1521 1521 1522 1522 1523 1523 1523 1523 1524 1524 1524 1525
1491 1491 1491 1494 1492 1488 1488 1489 1491 1493 1495 1497 1500 1505 1511 1514 1514 1515 1517 1518 1518 1518 1518 1518 1518 1519 1519 1520 1520 1520 1521 1521 1521 1521 1522 1522 1522 1522 1523 1523 1524 1524 1524 1524 1525 1525 1525 1526 1526
1492 1489 1495 1498 1494 1490 1490 1491 1493 1495 1497 1499 1502 1506 1513 1515 1515 1517 1518 1519 1519 1519 1519 1520 1520 1520 1521 1521 1521 1522 1522 1522 1523 1523 1523 1524 1524 1524 1524 1525 1525 1525 1525 1526 1526 1526 1526 1527 1527
1492 1490 1494 1494 1495 1494 1493 1493 1495 1497 1499 1500 1502 1507 1513 1515 1516 1517 1519 1520 1520 1521 1521 1521 1521 1522 1522 1523 1523 1523 1524 1524 1524 1525 1525 1525 1526 1526 1526 1526 1526 1527 1527 1527 1527 1527 1527 1528 1528
1491 1491 1492 1493 1495 1496 1494 1495 1497 1498 1501 1503 1504 1507 1512 1515 1516 1518 1519 1521 1522 1522 1522 1523 1523 1523 1523 1524 1525 1525 1525 1526 1526 1526 1527 1527 1527 1527 1527 1528 1528 1528 1528 1528 1528 1529 1529 1529 1529
1491 1494 1496 1493 1494 1495 1494 1496 1499 1501 1502 1504 1506 1508 1511 1514 1516 1518 1520 1521 1523 1523 1524 1525 1525 1525 1525 1526 1526 1527 1527 1527 1528 1528 1528 1528 1529 1529 1529 1529 1529 1529 1529 1529 1529 1529 1529 1530 1530
1490 1496 1494 1489 1490 1493 1495 1497 1498 1501 1503 1505 1508 1510 1512 1514 1517 1518 1520 1521 1523 1524 1525 1526 1526 1527 1527 1527 1528 1528 1528 1529 1529 1529 1530 1530 1530 1530 1530 1530 1530 1530 1530 1531 1530 1530 1530 1531 1531
1489 1492 1490 1490 1491 1493 1495 1497 1499 1500 1504 1506 1507 1510 1513 1515 1517 1519 1520 1521 1523 1524 1525 1526 1527 1528 1528 1529 1529 1529 1530 1530 1530 1531 1531 1531 1532 1532 1531 1531 1531 1532 1532 1532 1531 1531 1531 1532 1532
1490 1490 1490 1492 1494 1495 1496 1498 1500 1502 1505 1506 1508 1510 1512 1515 1517 1518 1520 1521 1523 1524 1526 1527 1527 1528 1529 1529 1530 1530 1530 1531 1531 1532 1532 1532 1533 1532 1532 1532 1533 1533 1533 1532 1532 1532 1532 1533 1533
1490 1491 1492 1494 1495 1496 1497 1499 1501 1503 1505 1507 1509 1510 1512 1514 1517 1518 1520 1522 1523 1524 1526 1527 1528 1529 1529 1529 1530 1530 1531 1532 1532 1532 1533 1533 1533 1533 1533 1533 1533 1534 1534 1533 1533 1533 1533 1533 1534
1491 1492 1493 1494 1495 1497 1498 1499 1501 1503 1505 1507 1509 1511 1513 1514 1516 1518 1520 1522 1523 1524 1526 1527 1528 1528 1529 1530 1530 1531 1531 1532 1532 1533 1533 1534 1534 1534 1534 1534 1534 1534 1534 1534 1534 1534 1534 1534 1534
1491 1492 1493 1494 1495 1496 1498 1500 1500 1502 1504 1506 1509 1511 1513 1514 1516 1518 1519 1521 1522 1524 1525 1527 1528 1529 1529 1530 1531 1531 1532 1532 1532 1533 1533 1534 1534 1534 1534 1534 1534 1535 1535 1535 1535 1535 1535 1535 1535
1490 1493 1498 1493 1493 1494 1499 1505 1499 1501 1503 1505 1508 1510 1512 1514 1516 1517 1519 1520 1522 1523 1525 1526 1527 1528 1529 1530 1531 1531 1532 1532 1532 1533 1533 1534 1534 1534 1534 1534 1535 1535 1535 1535 1535 1535 1535 1535 1535
1492 1496 1496 1493 1490 1491 1495 1501 1498 1499 1501 1503 1506 1508 1510 1513 1515 1516 1518 1519 1521 1522 1524 1525 1527 1528 1529 1530 1530 1531 1532 1532 1532 1532 1533 1533 1534 1534 1534 1534 1535 1535 1535 1535 1536 1535 1536 1535 1535
1493 1491 1491 1492 1488 1489 1493 1496 1495 1496 1498 1500 1503 1506 1508 1510 1513 1515 1516 1518 1520 1522 1523 1524 1526 1527 1528 1529 1530 1531 1531 1532 1532 1532 1533 1533 1534 1534 1534 1534 1535 1535 1535 1536 1536 1536 1536 1536 1536
1485 1487 1490 1489 1485 1488 1492 1493 1492 1493 1496 1498 1500 1503 1505 1508 1511 1513 1515 1517 1519 1521 1522 1523 1525 1526 1527 1528 1529 1529 1530 1531 1532 1532 1532 1533 1533 1534 1534 1534 1535 1535 1535 1536 1536 1536 1536 1536 1536
1485 1489 1489 1487 1484 1487 1490 1490 1489 1490 1493 1495 1497 1500 1502 1505 1508 1511 1513 1515 1517 1519 1520 1522 1523 1525 1525 1526 1528 1529 1529 1530 1531 1531 1532 1532 1533 1533 1533 1534 1534 1535 1535 1535 1536 1536 1536 1536 1536
1486 1489 1489 1490 1486 1484 1489 1492 1488 1488 1490 1493 1496 1498 1500 1503 1506 1508 1511 1513 1515 1517 1519 1520 1522 1523 1524 1525 1527 1528 1529 1530 1530 1531 1531 1532 1532 1533 1533 1534 1534 1534 1535 1535 1535 1535 1535 1536 1536
1490 1484 1486 1489 1493 1494 1490 1502 1489 1485 1488 1490 1493 1496 1498 1501 1503 1506 1508 1510 1512 1514 1517 1519 1520 1522 1523 1524 1525 1526 1527 1528 1529 1530 1530 1531 1531 1532 1533 1533 1533 1534 1534 1534 1534 1534 1535 1535 1536
1486 1483 1485 1487 1491 1494 1490 1497 1491 1482 1487 1488 1490 1493 1496 1499 1501 1504 1506 1508 1510 1512 1514 1517 1518 1520 1521 1522 1524 1525 1526 1527 1528 1529 1529 1530 1531 1531 1532 1532 1533 1533 1533 1533 1533 1533 1534 1534 1535
1483 1485 1486 1487 1491 1502 1488 1494 1494 1484 1482 1484 1487 1491 1495 1497 1499 1502 1504 1507 1509 1510 1512 1514 1516 1518 1519 1520 1522 1523 1525 1526 1527 1527 1528 1529 1529 1530 1530 1531 1531 1532 1532 1532 1532 1532 1532 1533 1533
1485 1493 1503 1504 1505 1497 1479 1486 1490 1479 1478 1481 1485 1490 1493 1496 1498 1501 1503 1504 1507 1509 1510 1512 1514 1516 1517 1519 1520 1522 1523 1524 1525 1526 1526 1527 1528 1528 1529 1529 1530 1530 1531 1531 1531 1531 1531 1531 1531
1483 1488 1503 1509 1503 1492 1481 1486 1484 1477 1479 1482 1485 1489 1493 1495 1497 1499 1501 1503 1505 1507 1508 1510 1512 1514 1515 1517 1518 1520 1521 1522 1524 1524 1525 1526 1526 1527 1527 1528 1528 1529 1529 1529 1529 1529 1529 1530 1530
1485 1485 1482 1492 1490 1495 1487 1484 1482 1478 1480 1483 1486 1490 1493 1495 1497 1499 1500 1502 1504 1505 1507 1508 1510 1512 1514 1515 1517 1518 1519 1520 1521 1522 1523 1524 1525 1525 1525 1526 1526 1527 1527 1527 1528 1528 1528 1528 1528
1482 1483 1486 1493 1502 1504 1492 1488 1487 1483 1483 1484 1486 1489 1492 1495 1497 1498 1499 1501 1502 1504 1505 1507 1508 1510 1511 1513 1514 1516 1517 1518 1519 1520 1521 1522 1522 1523 1523 1524 1524 1524 1525 1525 1525 1525 1526 1526 1526
1483 1485 1486 1489 1490 1501 1504 1496 1476 1478 1480 1484 1486 1489 1492 1494 1496 1498 1499 1500 1501 1503 1504 1505 1506 1508 1510 1511 1512 1513 1514 1515 1516 1518 1518 1519 1520 1521 1521 1521 1522 1522 1522 1523 1523 1523 1524 1524 1524
1479 1481 1485 1496 1494 1490 1498 1496 1475 1477 1481 1484 1487 1490 1492 1493 1495 1497 1498 1499 1500 1501 1502 1503 1505 1506 1507 1508 1510 1511 1512 1513 1514 1515 1515 1516 1517 1518 1518 1519 1519 1519 1520 1520 1520 1521 1521 1521 1521